• In Deutschland
  • Länderverzeichnis
  • Für 7 Tage
  • Wassertemperatur
  • Satellitenkarten
  • Wetterkarte
  • Widgets
  • user-avatar
    Anmelden

    Stündliche Wetter Trebinje

    Heute, 17 Oktober, Mittwoch

    Zeit Temperatur Niederschläge Wind Luftdruck Luftfeuchtigkeit
    00:00 +16°C° 0 mm 1 m/S 727 mmHg 72%
    01:00 +16°C° 0 mm 2 m/S 727 mmHg 72%
    02:00 +16°C° 0 mm 1 m/S 727 mmHg 73%
    03:00 +16°C° 0 mm 1 m/S 727 mmHg 73%
    04:00 +15°C° 0 mm 1 m/S 727 mmHg 73%
    05:00 +16°C° 0 mm 1 m/S 727 mmHg 72%
    06:00 +16°C° 0 mm 1 m/S 726 mmHg 71%
    07:00 +17°C° 0 mm 2 m/S 727 mmHg 68%
    08:00 +20°C° 0 mm 1 m/S 726 mmHg 61%
    09:00 +22°C° 0 mm 1 m/S 726 mmHg 54%
    10:00 +22°C° 0 mm 0 m/S 726 mmHg 47%
    11:00 +24°C° 0 mm 1 m/S 726 mmHg 46%
    12:00 +25°C° 0 mm 1 m/S 726 mmHg 45%
    13:00 +25°C° 0 mm 1 m/S 726 mmHg 44%
    14:00 +24°C° 0 mm 1 m/S 725 mmHg 48%
    15:00 +24°C° 0 mm 1 m/S 725 mmHg 53%
    16:00 +23°C° 0 mm 1 m/S 725 mmHg 58%
    17:00 +21°C° 0 mm 1 m/S 725 mmHg 62%
    18:00 +20°C° 0 mm 1 m/S 725 mmHg 66%
    19:00 +18°C° 0 mm 1 m/S 725 mmHg 71%
    20:00 +18°C° 0 mm 1 m/S 725 mmHg 70%
    21:00 +18°C° 0 mm 1 m/S 725 mmHg 70%
    22:00 +16°C° 0 mm 1 m/S 725 mmHg 69%
    23:00 +16°C° 0 mm 1 m/S 725 mmHg 69%

    Morgen, 18 Oktober, Donnerstag

    Zeit Temperatur Niederschläge Wind Luftdruck Luftfeuchtigkeit
    00:00 +16°C° 0 mm 1 m/S 725 mmHg 68%
    01:00 +16°C° 0 mm 1 m/S 725 mmHg 67%
    02:00 +15°C° 0 mm 1 m/S 724 mmHg 67%
    03:00 +15°C° 0 mm 2 m/S 724 mmHg 67%
    04:00 +15°C° 0 mm 2 m/S 724 mmHg 67%
    05:00 +15°C° 0 mm 2 m/S 724 mmHg 67%
    06:00 +16°C° 0 mm 2 m/S 724 mmHg 66%
    07:00 +16°C° 0 mm 2 m/S 724 mmHg 66%
    08:00 +19°C° 0 mm 1 m/S 724 mmHg 59%
    09:00 +22°C° 0 mm 1 m/S 725 mmHg 53%
    10:00 +24°C° 0 mm 1 m/S 725 mmHg 46%
    11:00 +24°C° 0 mm 1 m/S 724 mmHg 46%
    12:00 +24°C° 0 mm 1 m/S 724 mmHg 45%
    13:00 +25°C° 0 mm 2 m/S 724 mmHg 45%
    14:00 +24°C° 0 mm 1 m/S 724 mmHg 49%
    15:00 +23°C° 0 mm 1 m/S 724 mmHg 54%
    16:00 +22°C° 0 mm 1 m/S 723 mmHg 58%
    17:00 +21°C° 0 mm 1 m/S 724 mmHg 63%
    18:00 +19°C° 0 mm 1 m/S 724 mmHg 67%
    19:00 +18°C° 0 mm 1 m/S 724 mmHg 72%
    20:00 +16°C° 0 mm 1 m/S 724 mmHg 72%
    21:00 +16°C° 0 mm 1 m/S 724 mmHg 72%
    22:00 +16°C° 0 mm 1 m/S 725 mmHg 72%
    23:00 +16°C° 0 mm 1 m/S 725 mmHg 72%

    übermorgen, 19 Oktober, Freitag

    Zeit Temperatur Niederschläge Wind Luftdruck Luftfeuchtigkeit
    00:00 +15°C° 0 mm 2 m/S 725 mmHg 71%
    01:00 +15°C° 0 mm 2 m/S 725 mmHg 71%
    02:00 +15°C° 0 mm 2 m/S 724 mmHg 71%
    03:00 +15°C° 0 mm 2 m/S 724 mmHg 71%
    04:00 +15°C° 0 mm 1 m/S 724 mmHg 71%
    05:00 +15°C° 0 mm 1 m/S 724 mmHg 71%
    06:00 +15°C° 0 mm 1 m/S 725 mmHg 70%
    07:00 +15°C° 0 mm 2 m/S 725 mmHg 69%
    08:00 +19°C° 0 mm 1 m/S 725 mmHg 63%
    09:00 +21°C° 0 mm 1 m/S 725 mmHg 57%
    10:00 +21°C° 0 mm 0 m/S 726 mmHg 50%
    11:00 +23°C° 0 mm 1 m/S 726 mmHg 49%
    12:00 +24°C° 0 mm 2 m/S 725 mmHg 49%
    13:00 +24°C° 0 mm 2 m/S 725 mmHg 48%
    14:00 +23°C° 0.1 mm 2 m/S 725 mmHg 52%
    15:00 +21°C° 0.1 mm 2 m/S 725 mmHg 57%
    16:00 +21°C° 0.1 mm 2 m/S 725 mmHg 62%
    17:00 +19°C° 0 mm 2 m/S 725 mmHg 67%
    18:00 +18°C° 0 mm 2 m/S 726 mmHg 72%
    19:00 +16°C° 0 mm 2 m/S 726 mmHg 76%
    20:00 +16°C° 0 mm 2 m/S 726 mmHg 77%
    21:00 +16°C° 0 mm 2 m/S 726 mmHg 77%
    22:00 +16°C° 0 mm 2 m/S 727 mmHg 78%
    23:00 +15°C° 0 mm 2 m/S 727 mmHg 78%

    20 Oktober, Samstag

    Zeit Temperatur Niederschläge Wind Luftdruck Luftfeuchtigkeit
    00:00 +15°C° 0 mm 2 m/S 727 mmHg 78%
    01:00 +15°C° 0 mm 2 m/S 727 mmHg 78%
    02:00 +15°C° 0 mm 2 m/S 727 mmHg 79%
    03:00 +15°C° 0 mm 2 m/S 727 mmHg 80%
    04:00 +14°C° 0 mm 2 m/S 727 mmHg 81%
    05:00 +14°C° 0 mm 2 m/S 727 mmHg 81%
    06:00 +14°C° 0 mm 2 m/S 727 mmHg 80%
    07:00 +13°C° 0 mm 3 m/S 728 mmHg 79%
    08:00 +16°C° 0 mm 2 m/S 728 mmHg 70%
    09:00 +18°C° 0 mm 2 m/S 728 mmHg 60%
    10:00 +20°C° 0 mm 2 m/S 728 mmHg 50%
    11:00 +21°C° 0 mm 2 m/S 728 mmHg 48%
    12:00 +21°C° 0 mm 2 m/S 728 mmHg 46%
    13:00 +22°C° 0 mm 3 m/S 728 mmHg 44%
    14:00 +21°C° 0 mm 3 m/S 728 mmHg 48%
    15:00 +20°C° 0 mm 3 m/S 728 mmHg 52%
    16:00 +19°C° 0 mm 3 m/S 728 mmHg 55%
    17:00 +18°C° 0 mm 3 m/S 728 mmHg 60%
    18:00 +15°C° 0 mm 4 m/S 728 mmHg 64%
    19:00 +14°C° 0 mm 4 m/S 728 mmHg 69%
    20:00 +13°C° 0 mm 4 m/S 729 mmHg 71%
    21:00 +13°C° 0 mm 4 m/S 729 mmHg 74%
    22:00 +12°C° 0 mm 4 m/S 729 mmHg 77%
    23:00 +12°C° 0 mm 4 m/S 729 mmHg 78%

    21 Oktober, Sonntag

    Zeit Temperatur Niederschläge Wind Luftdruck Luftfeuchtigkeit
    00:00 +12°C° 0 mm 4 m/S 729 mmHg 79%
    01:00 +11°C° 0 mm 4 m/S 729 mmHg 80%
    02:00 +11°C° 0 mm 3 m/S 729 mmHg 80%
    03:00 +11°C° 0 mm 3 m/S 729 mmHg 81%
    04:00 +11°C° 0 mm 3 m/S 729 mmHg 81%
    05:00 +11°C° 0 mm 3 m/S 729 mmHg 80%
    06:00 +11°C° 0 mm 3 m/S 729 mmHg 79%
    07:00 +11°C° 0 mm 3 m/S 729 mmHg 78%
    08:00 +13°C° 0 mm 3 m/S 729 mmHg 70%
    09:00 +16°C° 0 mm 3 m/S 729 mmHg 61%
    10:00 +18°C° 0 mm 3 m/S 729 mmHg 53%
    11:00 +19°C° 0 mm 3 m/S 728 mmHg 51%
    12:00 +20°C° 0 mm 3 m/S 728 mmHg 48%
    13:00 +20°C° 0 mm 3 m/S 728 mmHg 46%
    14:00 +20°C° 0 mm 3 m/S 727 mmHg 50%
    15:00 +19°C° 0 mm 3 m/S 727 mmHg 53%
    16:00 +18°C° 0 mm 4 m/S 727 mmHg 57%
    17:00 +17°C° 0 mm 4 m/S 727 mmHg 62%
    18:00 +14°C° 0 mm 4 m/S 727 mmHg 67%
    19:00 +12°C° 0 mm 3 m/S 726 mmHg 72%
    20:00 +12°C° 0 mm 4 m/S 726 mmHg 73%
    21:00 +11°C° 0 mm 4 m/S 726 mmHg 74%
    22:00 +11°C° 0 mm 4 m/S 726 mmHg 75%
    23:00 +11°C° 0 mm 4 m/S 726 mmHg 74%

    22 Oktober, Montag

    Zeit Temperatur Niederschläge Wind Luftdruck Luftfeuchtigkeit
    00:00 +11°C° 0 mm 4 m/S 725 mmHg 72%
    01:00 +9°C° 0 mm 5 m/S 725 mmHg 70%
    02:00 +9°C° 0 mm 6 m/S 725 mmHg 68%
    03:00 +8°C° 0 mm 7 m/S 725 mmHg 66%
    04:00 +7°C° 0 mm 8 m/S 724 mmHg 64%
    05:00 +6°C° 0 mm 8 m/S 724 mmHg 63%
    06:00 +6°C° 0 mm 8 m/S 724 mmHg 62%
    07:00 +6°C° 0 mm 8 m/S 724 mmHg 61%
    08:00 +7°C° 0 mm 8 m/S 724 mmHg 56%
    09:00 +10°C° 0 mm 8 m/S 724 mmHg 52%
    10:00 +11°C° 0 mm 7 m/S 724 mmHg 48%
    11:00 +11°C° 0 mm 7 m/S 724 mmHg 47%
    12:00 +11°C° 0 mm 7 m/S 724 mmHg 47%
    13:00 +12°C° 0 mm 7 m/S 724 mmHg 46%
    14:00 +11°C° 0 mm 6 m/S 724 mmHg 50%
    15:00 +10°C° 0 mm 6 m/S 724 mmHg 54%
    16:00 +10°C° 0 mm 6 m/S 724 mmHg 57%
    17:00 +9°C° 0 mm 6 m/S 724 mmHg 60%
    18:00 +9°C° 0 mm 5 m/S 724 mmHg 62%
    19:00 +9°C° 0 mm 5 m/S 724 mmHg 65%
    20:00 +9°C° 0 mm 5 m/S 725 mmHg 66%
    21:00 +9°C° 0 mm 5 m/S 725 mmHg 67%
    22:00 +9°C° 0 mm 5 m/S 725 mmHg 68%
    23:00 +9°C° 0 mm 5 m/S 725 mmHg 69%
    Mehr zeigen